Location: Goettingen
(51.5300°N, 9.9433°E)
Time: 19:11:31
(UTC+02:00)

ISS - Pass Details

Date: 15 May 2026
Orbit: 414 x 424 km, 51.6° (Epoch: 13 May)

Event Time Altitude Azimuth Distance (km) Brightness Sun altitude
Rises 21:44:25 0° 261° (W) 2,349 0.7 -5.6°
Reaches altitude 10° 21:46:30 10° 261° (W) 1,488 -0.3 -5.9°
Maximum altitude 21:49:50 88° 178° (S) 420 -3.8 -6.3°
Drops below altitude 10° 21:53:12 10° 84° (E) 1,492 -1.3 -6.7°
Sets 21:55:17 0° 84° (E) 2,356 -0.3 -6.9°
Enters shadow 21:55:19 - 84° (E) 2,367 -0.3 -6.9°
